sat.trackr.live / text

‹ back to catalog

YAOGAN-32 B

NORAD 43643 · 2018-077B

PAYLOAD ACTIVE UNKNOWN

§ Identity

Operator
Country
PRC
Launch date
2018-10-09
Launch site
JSC
Launch vehicle
Mass (kg)
RCS (m²)

External: N2YO · Heavens-Above · Gunter

§ Orbital elements

Epoch: 2026-05-25T05:08:09.614688Z

Period
98.42 min
Inclination
98.1495°
Eccentricity
0.0004522
Mean motion
14.63138972 rev/d
Perigee alt
679.9 km
Apogee alt
686.2 km
Semi-major
7,061.2 km
B*
1.2074e-4
RAAN
173.9887°
Arg perigee
299.3983°
Mean anomaly
60.6767°
Rev number
40,647

§ Raw data

YAOGAN-32 B1 43643U 18077B   26145.21400017  .00000574  00000+0  12074-3 0  99982 43643  98.1495 173.9887 0004522 299.3983  60.6767 14.63138972406474

JSON: /api/v1/satellites/43643 · /tle

For live sub-satellite position, see the globe view (requires WebGL).

§ Visibility from observer

Set your observer location to see the next 7 days of passes ≥ 10°. The values pass through the URL so the page stays shareable.

No JS? Fill the form by hand. The geolocation button needs JavaScript.